Location: Date Creek
(34.2167°N, 113.0301°W)
Time: 18:47:30
(UTC-07:00)

Tiangong 2 - Visible Passes

Search period start: 20 February 2018 00:00
Search period end: 02 March 2018 00:00
Orbit: 384 x 388 km, 42.8° (Epoch: 20 February)

Date Brightness Start Highest point End Pass type
(mag) Time Alt. Az. Time Alt. Az. Time Alt. Az.
20 Feb 1.7 19:30:23 10° NW 19:33:23 39° NNE 19:33:56 35° NE visible
21 Feb 2.5 20:08:07 10° WNW 20:10:20 39° W 20:10:20 39° W visible
22 Feb 1.0 19:09:06 10° WNW 19:12:17 71° NNE 19:14:34 17° ESE visible
23 Feb 2.9 19:47:10 10° W 19:49:56 27° SW 19:51:14 20° S visible
24 Feb 1.7 18:47:55 10° WNW 18:51:02 56° SSW 18:54:08 10° SE visible
25 Feb 4.0 19:26:50 10° WSW 19:28:31 14° SW 19:30:11 10° S visible
